Location: Ariel
(45.9570°N, 122.5700°W)
Time: 01:56:30
(UTC-07:00)

Tiros 1 - Pass Details

Date: 27 July 2019
Orbit: 631 x 664 km, 48.4° (Epoch: 25 August)

Event Time Altitude Azimuth Distance (km) Brightness Sun altitude
Rises 14:36:59 0° 283° (WNW) 2,994 10.7 58.5°
Reaches altitude 10° 14:39:21 10° 286° (WNW) 2,083 10.1 58.2°
Maximum altitude 14:44:09 72° 11° (N) 698 8.1 57.7°
Drops below altitude 10° 14:48:58 10° 96° (E) 2,079 9.7 57.1°
Sets 14:51:19 0° 98° (E) 2,988 10.4 56.8°
